Flag for U.S.A. Weather past 2 weeks in Providence, Rhode Island, U.S.A.

Now
55 °F

Overcast.


Feels Like: 54 °F
Forecast: 44 / 57 °F
Wind: 6 mph from Southwest

Location: Green State Airport

Current Time: Oct 26, 2014 at 4:45:09 AM

Latest Report: Oct 26, 2014 at 3:51 AM


Visibility: 10 mi

Pressure: 29.48 "Hg

Humidity: 69%

Dew point: 45 °F

Location of ProvidenceLocation

Historic Weather in Providence — Graph

°F

Providence temperature yesterday

Maximum temperature yesterday: 66 °F (at 2:51 PM)
Minimum temperature yesterday: 43 °F (at 6:51 AM)
Average temperature yesterday: 55 °F

Past Weeks' High & Low Weather Summary

 TemperatureHumidityPressure
High79 °F (Oct 15, 12:51 PM)100% (Oct 17, 5:51 AM)30.37 "Hg (Oct 17, 5:51 AM)
Low34 °F (Oct 20, 5:51 AM)37% (Oct 25, 1:51 PM)29.48 "Hg (Oct 26, 3:51 AM)
Average57 °F79%29.91 "Hg
* Reported Oct 11 3:51 AM — Oct 26 3:51 AM, Providence, Weather by CustomWeather, © 2014

Note: Actual official high and low records may vary slightly from our data, if they occured in-between our weather recording intervals... More about our weather records

Advertising

Providence weather history for previous 24 hours

 ConditionsComfort  
Time TempWeatherWind HumidityBarometerVisibility
3:51 AM
Oct 26
55 °FOvercast.6 mph69%29.48 "Hg10 mi
2:51 AM56 °FPassing clouds.8 mph67%29.49 "Hg10 mi
1:51 AM57 °FPassing clouds.8 mph69%29.50 "Hg10 mi
12:51 AM58 °FMostly cloudy.10 mph70%29.50 "Hg10 mi
11:51 PM
Oct 25
58 °FPassing clouds.10 mph72%29.52 "Hg10 mi
10:51 PM54 °FClear.7 mph80%29.56 "Hg10 mi
9:51 PM57 °FPassing clouds.5 mph67%29.58 "Hg10 mi
8:51 PM58 °FMostly cloudy.10 mph65%29.60 "Hg10 mi
7:51 PM56 °FPassing clouds.5 mph67%29.62 "Hg10 mi
6:51 PM56 °FPassing clouds.7 mph65%29.62 "Hg10 mi
5:51 PM58 °FPassing clouds.9 mph58%29.61 "Hg10 mi
4:51 PM63 °FSunny.10 mph47%29.62 "Hg10 mi
3:51 PM65 °FPassing clouds.12 mph44%29.64 "Hg10 mi
2:51 PM66 °FScattered clouds.13 mph39%29.65 "Hg10 mi
1:51 PM65 °FPassing clouds.13 mph37%29.67 "Hg10 mi
12:51 PM63 °FSunny.10 mph47%29.70 "Hg10 mi
11:51 AM63 °FScattered clouds.9 mph47%29.73 "Hg10 mi
10:51 AM59 °FScattered clouds.9 mph54%29.75 "Hg10 mi
9:51 AM55 °FPassing clouds.8 mph62%29.77 "Hg10 mi
8:51 AM49 °FScattered clouds.7 mph74%29.78 "Hg10 mi
7:51 AM46 °FPassing clouds.7 mph79%29.80 "Hg10 mi
6:51 AM43 °FPassing clouds.5 mph86%29.80 "Hg10 mi
5:51 AM45 °FPassing clouds.5 mph80%29.79 "Hg10 mi
4:51 AM45 °FClear.5 mph82%29.78 "Hg10 mi
Weather by CustomWeather, © 2014

See weather overviewHow to use our weather pages